Location: C�te aux F�es
(46.8666°N, 6.4885°E)
Time: 11:47:13
(UTC+00:00)

Daily predictions for brighter satellites

Satellite Brightness Start Highest point End
(mag) Time Altitude Azimuth Time Altitude Azimuth Time Altitude Azimuth
Nadezhda 4 Rocket 4.1 16:11:46 10° N 16:18:02 60° ENE 16:24:17 10° SSE
CZ-4B R/B 4.3 16:16:21 10° ESE 16:20:18 21° ENE 16:24:13 10° NNE
ADEOS 4.0 16:15:21 10° S 16:20:33 71° WSW 16:25:48 10° NNW
CZ-2C R/B 4.1 16:20:26 10° NE 16:23:19 15° E 16:26:11 10° ESE
CZ-4C R/B 3.5 16:17:12 10° NNW 16:23:20 34° NNE 16:30:30 10° E
Cosmos 1500 Rocket 3.9 16:19:10 10° N 16:23:28 45° ENE 16:27:41 10° SSE
CZ-4B R/B 2.8 16:23:02 10° SSE 16:27:06 74° ENE 16:30:59 10° N
SMAP 3.3 16:24:23 10° SE 16:28:51 48° ENE 16:33:20 10° N
USA 305 3.9 16:25:05 10° WNW 16:28:58 34° N 16:32:51 10° NE
CZ-2C R/B 2.9 16:26:00 10° SSE 16:30:56 87° ENE 16:35:45 10° NNW
Cosmos 1092 Rocket 4.3 16:26:38 10° N 16:32:45 47° ENE 16:38:49 10° SSE
Cosmos 468 Rocket 4.2 16:27:54 10° S 16:32:51 49° ESE 16:37:52 10° NNE
Cosmos 1898 Rocket 3.6 16:29:11 10° NNW 16:34:22 55° ENE 16:39:28 10° SE
Cosmos 44 3.8 16:30:06 10° NW 16:34:49 60° WSW 16:39:14 10° SSE
Cosmos 1805 Rocket 4.1 16:30:59 10° N 16:34:59 35° ENE 16:38:58 10° SE
Sich 1 3.8 16:31:52 10° NNE 16:35:37 28° ENE 16:39:21 10° SE
Cosmos 1933 4.0 16:32:38 10° SSE 16:36:18 34° E 16:39:59 10° NNE
Cosmos 1842 Rocket 3.7 16:34:28 10° S 16:38:55 86° WNW 16:43:26 10° N
Cosmos 2221 2.8 16:34:46 10° SSW 16:39:02 74° W 16:43:21 10° N
PSLV R/B 4.2 16:38:50 10° SE 16:42:11 35° ENE 16:45:37 10° N
SL-08 R/B 3.8 16:40:51 10° N 16:45:32 62° WNW 16:50:06 10° SSW
Cosmos 2084 3.6 16:46:41 10° NW 16:51:00 84° SW 16:55:29 10° SE
Cosmos 1656 4.3 16:46:02 10° NNW 16:51:30 62° WSW 16:57:01 10° S
deb Chang Zheng 4 4.4 16:48:23 10° ESE 16:52:01 27° ENE 16:55:40 10° N
AQUARIUS 4.1 16:47:58 10° SSE 16:52:25 69° ENE 16:56:54 10° N
FengYun 1-2 T 4.4 16:48:16 10° SSE 16:53:52 83° WSW 16:59:27 10° NNW
H-2A R/B 2.3 16:49:56 10° SE 16:54:51 46° ENE 16:59:40 10° N
Cosmos 2034 Rocket 4.1 16:49:34 10° S 16:55:44 84° W 17:01:56 10° N
NOSS 2-2 (C) 4.4 16:52:34 10° NNW 16:57:28 52° NE 17:04:13 10° ESE
ERBS 4.1 16:55:13 10° WNW 16:57:44 21° NNW 16:59:46 13° NNE
Cosmos 1666 3.8 16:55:41 10° NNE 16:58:37 21° ENE 17:01:32 10° ESE
Cosmos 2322 Rocket 3.8 16:55:50 10° N 16:59:00 15° NE 17:00:05 14° NE
USA 306 4.0 16:57:24 10° WNW 17:01:14 31° N 17:03:44 17° NE
Cosmos 1697 Rocket 2.6 16:57:16 10° NNW 17:02:56 85° ENE 17:08:33 10° SSE
USA 267 3.4 16:58:13 13° NE 17:04:08 74° NNW 17:10:39 10° WSW
Cosmos 2369 3.7 17:00:34 10° NNW 17:06:17 63° ENE 17:11:56 10° SE
Cosmos 1980 Rocket 2.3 17:01:13 10° NNW 17:06:46 51° ENE 17:12:14 10° SE
Cosmos 1763 Rocket 3.5 17:02:36 10° SSW 17:07:40 81° WNW 17:12:48 10° NNE
COSMO-SKYMED 1 3.3 17:05:08 15° NE 17:08:04 31° E 17:11:55 10° SSE
MOS 1-B Rocket 4.3 17:02:39 10° NNE 17:08:22 50° E 17:14:48 10° S
Cosmos 1939 Rocket 3.5 17:04:31 10° S 17:08:35 61° W 17:12:39 10° NNW
SL-24 R/B - RUBIN 2 3.7 17:07:07 10° NNW 17:11:37 53° NE 17:15:48 10° SE
Meteor 1-25 Rocket 4.3 17:06:10 10° NNW 17:11:45 82° W 17:17:21 10° S
Meteor 2-21 4.4 17:06:34 10° N 17:12:39 69° ENE 17:18:40 10° SSE
Cosmos 841 Rocket 3.6 17:08:09 10° S 17:13:08 52° ESE 17:17:15 15° NE
Cosmos 1812 3.3 17:11:29 10° SSE 17:14:59 34° E 17:16:32 24° NE
Cosmos 1937 Rocket 3.5 17:10:36 10° NNW 17:15:57 87° ENE 17:21:17 10° SSE
SL-16 R/B 3.3 17:12:05 10° N 17:16:28 22° NE 17:17:26 21° ENE
Cosmos 1634 Rocket 4.0 17:11:07 10° S 17:17:23 70° E 17:23:42 10° NNE
Cosmos 1633 Rocket 3.5 17:14:53 10° N 17:18:58 36° ENE 17:23:00 10° SE
USA 307 4.0 17:15:47 10° WNW 17:19:37 31° N 17:21:20 23° NE
YAOGAN 1 4.2 17:22:20 17° NNE 17:22:20 17° NNE 17:23:48 10° NNE
Cosmos 2082 Rocket 2.4 17:15:13 10° S 17:20:40 50° ESE 17:24:27 20° NE
USA 229 DEB 4.3 17:13:28 10° NW 17:20:46 70° SW 17:28:32 10° SSE
USA 229 4.3 17:13:33 10° NW 17:20:52 71° SW 17:28:37 10° SSE
Cosmos 2333 Rocket 4.3 17:23:45 10° NNE 17:24:11 10° NNE 17:24:11 10° NNE
Cosmos 2026 Rocket 3.9 17:18:20 10° N 17:24:31 90° W 17:30:36 10° S
ATLAS 2AS CENTAUR R/B 4.4 17:23:32 10° NW 17:29:16 22° N 17:33:27 14° NNE
Okean O Rocket 1.7 17:25:21 10° SSE 17:29:41 53° ENE 17:34:02 10° N
USA 276 4.3 17:27:09 10° W 17:29:45 24° SW 17:32:20 10° SSE
Cosmos 1602 4.4 17:26:30 10° NNW 17:30:16 56° W 17:34:04 10° S
Cosmos 372 Rocket 3.9 17:25:01 10° NNW 17:30:17 76° ENE 17:35:31 10° SSE
Cosmos 2278 3.7 17:25:06 10° NNW 17:30:45 56° ENE 17:36:20 10° SE
ATLAS CENTAUR R/B 4.0 17:32:10 10° NW 17:33:46 12° NNW 17:35:25 10° N
Cosmos 1151 Rocket 3.0 17:31:37 10° S 17:35:50 56° E 17:38:08 25° NNE
Cosmos 1782 2.9 17:31:54 10° SSW 17:35:53 77° W 17:39:44 11° N
Cosmos 1655 Rocket 4.4 17:30:56 10° N 17:36:57 41° ENE 17:42:55 10° SE
USA 234 3.9 17:31:45 10° SE 17:38:09 56° SW 17:44:35 10° WNW
COSMOS 2406 3.3 17:32:35 10° SSW 17:38:21 77° WNW 17:43:05 16° NNE
COSMOS 2455 2.8 17:34:09 10° SSW 17:40:09 78° ESE 17:43:55 24° NE
USA 308 3.9 17:38:23 10° WNW 17:42:12 31° N 17:42:51 29° NNE
ARGOS 3.0 17:37:58 10° SSE 17:43:22 74° ENE 17:48:46 10° N
Cosmos 1666 Rocket 3.4 17:39:27 10° N 17:43:55 80° E 17:48:20 10° SSE
Cosmos 1833 Rocket 3.3 17:39:28 10° SW 17:44:58 55° WNW 17:49:48 14° NNE
Cosmos 2180 Rocket 4.5 17:42:01 10° S 17:48:14 60° E 17:54:24 10° NNE
Meteor 2-6 Rocket 4.2 17:44:20 10° S 17:49:59 57° E 17:53:25 23° NNE
Cosmos 1328 Rocket 3.6 17:45:50 10° S 17:50:11 57° E 17:50:52 50° ENE
ISS -3.8 17:46:49 10° WNW 17:50:10 85° NW 17:50:10 85° NW
NOSS 2-2 (D) 4.5 17:45:33 10° NW 17:50:48 79° SW 17:58:11 10° SSE
Cosmos 2219 Rocket 4.3 17:51:59 10° N 17:52:22 11° NNE 17:52:22 11° NNE
CZ-4 R/B 4.3 17:50:03 10° SSE 17:54:10 88° ENE 17:58:20 10° NNW
SKYMED 2 3.5 17:53:45 25° NNE 17:56:17 85° WNW 18:00:37 10° SSW
Lacrosse 5 rocket 2.1 17:53:31 10° NW 17:56:31 35° N 17:56:31 35° N
CZ-4B R/B 3.5 17:55:00 10° S 18:00:23 67° WSW 18:05:44 10° NNW
Cosmos 1570 Rocket 3.9 17:55:20 10° SSW 18:00:32 71° ESE 18:02:05 45° NE
Cosmos 2298 Rocket 4.2 17:55:29 10° NNW 18:00:27 48° NE 18:00:27 48° NE
Landsat 5 3.2 18:00:26 74° ENE 18:00:39 77° ESE 18:04:39 10° S
Meteor 2-8 Rocket 4.3 17:55:16 10° S 18:01:22 72° E 18:07:31 10° NNE
ATLAS CENTAUR R/B 2.8 17:53:43 10° WSW 18:02:05 55° NW 18:03:24 40° NNE
SL-08 RB Rocket 3.6 17:58:34 10° SSE 18:03:12 79° ENE 18:07:50 10° N
GEOS 3 Rocket 3.5 18:02:08 47° ESE 18:03:31 67° NE 18:08:40 10° NW
CZ-2C R/B 2.6 17:59:23 12° N 18:04:16 78° WNW 18:09:25 10° SSW
Cosmos 540 Rocket 4.4 17:59:43 10° SW 18:04:38 46° WNW 18:08:24 17° N
Meteor 1-10 Rocket 4.2 18:02:22 10° S 18:08:02 59° E 18:09:02 51° NE
Cosmos 1814 Rocket 3.9 18:03:02 10° SSW 18:08:16 88° WNW 18:10:08 41° NNE
Meteor 1-11 Rocket 3.8 18:02:53 10° N 18:07:51 51° NE 18:07:51 51° NE
Cosmos 1818 3.5 18:03:03 10° NNW 18:08:32 63° NE 18:09:02 60° ENE
USA 305 4.0 18:05:42 10° NW 18:08:56 32° N 18:08:56 32° N
Cosmos 44 Rocket 3.4 18:07:23 10° NNW 18:11:46 58° NNE 18:11:46 58° NNE
CZ-4C R/B 3.0 18:05:28 10° NW 18:12:43 87° SW 18:20:10 14° SE
Cosmos 1900 4.5 18:14:16 10° SSW 18:18:20 57° SSE 18:18:20 57° SSE
Feng Yun 1-1 Rocket 4.3 18:13:14 10° SSE 18:19:10 87° WSW 18:25:05 10° NNW
Cosmos 2360 Rocket 3.8 18:19:52 10° NNW 18:22:13 21° N 18:22:13 21° N
Cosmos 2208 Rocket 4.1 18:27:54 10° SSW 18:33:17 78° WNW 18:33:46 72° NNW
H-2A R/B 4.2 18:30:12 10° SSW 18:34:27 25° W 18:38:39 10° NW
COSMO-SKYMED 1 4.4 18:42:21 21° NNW 18:44:10 29° WNW 18:47:54 10° SW
Cosmos 2322 Rocket 3.2 18:38:36 10° NNW 18:41:55 35° N 18:41:55 35° N
USA 267 4.0 18:45:34 38° N 18:46:40 40° NNW 18:52:39 10° WNW
Cosmos 1980 Rocket 4.1 18:45:44 10° NW 18:50:28 28° WSW 18:55:09 10° SSW
Cosmos 2266 Rocket 4.3 18:44:57 10° NNW 18:51:16 66° W 18:57:36 10° S
SL-16 R/B 3.0 18:55:33 10° NNW 18:59:21 44° NW 18:59:21 44° NW
Cosmos 2082 Rocket 3.7 18:59:58 10° WSW 19:04:59 31° NW 19:06:20 28° NNW
Okean O Rocket 4.3 19:03:20 10° SW 19:06:21 18° W 19:09:22 10° NW
Cosmos 2333 Rocket 4.5 19:05:16 10° NNW 19:06:11 14° N 19:06:11 14° N
ATLAS 2AS CENTAUR R/B 4.3 19:16:42 10° NW 19:20:53 24° N 19:20:53 24° N
COSMOS 2455 4.5 19:21:42 10° W 19:26:45 27° NW 19:27:05 27° NNW
